EHI
0 0 0 0 0 0 0 0 0 0 0 0 0 0 0 0 0 0 0 0 0 0 0 0 0 0 0 0 0 0 0 0 0 0 0 0 0 0 0 0 0 0 0 0
0 0 0 0 0 0 0 0 0 0 0 0 0 0 0 0 0 0 0 0 0 0 0 0 0 0 0 0 0 0 0 0 0 0 0 0 0 0 0 0 0 0 0 0
0 0 0 0 0 0 0 0 0 0 0 0 0 0 0 0 0 0 0 0 0 0 0 0 0 0 0 0 0 0 0 0 0 0 0 0 0 0 0 0 0 0 0 0
0 0 0 0 0 0 0 0 0 0 0 0 0 0 0 0 0 0 0 0 0 0 0 0 0 0 0 0 0 0 0 0 0 0 0 0 0 0 0 0 0 0 0 0
0 0 0 0 0 0 0 0 0 0 0 0 0 0 0 0 0 0 0 0 0 0 0 0 0 0 0 0 0 0 0 0 0 0 0 0 0 0 0 0 0 0 0 0
0 0 0 0 0 0 0 0 0 0 0 0 0 0 0 0 0 0 0 0 0 0 0 0 0 0 0 0 0 0 0 0 0 0 0 0 0 0 0 0 0 0 0 0
0 0 0 0 0 0 0 0 0 0 0 0 0 0 0 0 0 0 0 0 0 0 0 0 0 0 0 0 0 0 0 0 0 0 0 0 0 0 0 0 0 0 0 0
0 0 0 0 0 0 0 0 0 0 0 0 0 0 0 0 0 0 0 0 0 0 0 0 0 0 0 0 0 0 0 0 0 0 0 0 0 0 0 0 0 0 0 0
0 0 0 0 0 0 0 0 0 0 0 0 0 0 0 0 0 0 0 0 0 0 0 0 0 0 0 0 0 0 0 0 0 0 0 0 0 0 0 0 0 0 0 0
0 0 0 0 0 0 0 0 0 0 0 0 0 0 0 0 0 0 0 0 0 0 0 0 0 0 0 0 0 0 0 0 0 0 0 0 0 0 0 0 0 0 0 0
0 0 0 0 0 0 0 0 0 0 0 0 0 0 0 0 0 0 0 0 0 0 0 0 0 0 0 0 0 0 0 0 0 0 0 0 0 0 0 0 0 0 0 0
0 0 0 0 0 0 0 0 0 0 0 0 0 0 0 0 0 0 0 0 0 0 0 0 0 0 0 0 0 0 0 0 0 0 0 0 0 0 0 0 0 0 0 0
0 0 0 0 0 0 0 0 0 0 0 0 0 0 0 0 0 0 0 0 0 0 0 0 0 0 0 0 0 0 0 0 0 0 0 0 0 0 0 0 0 0 0 0
0 0 0 0 0 0 0 0 0 0 0 0 0 0 0 0 0 0 0 0 0 0 0 0 0 0 0 0 0 0 0 0 0 0 0 0 0 0 0 0 0 0 0 0
0 0 0 0 0 0 0 0 0 0 0 0 0 0 0 0 0 0 0 0 0 0 0 0 0 0 0 0 0 0 0 0 0 0 0 0 0 0 0 0 0 0 0 0
0 0 0 0 0 0 0 0 0 0 0 0 0 0 0 0 0 0 0 0 0 0 0 0 0 0 0 0 0 0 0 0 0 0 0 0 0 0 0 0 0 0 0 0
0 0 0 0 0 0 0 0 0 0 0 0 0 0 0 0 0 0 0 0 0 0 0 0 0 0 0 0 0 0 0 0 0 0 0 0 0 0 0 0 0 0 0 0
0 0 0 0 0 0 0 0 0 0 0 0 0 0 0 0 0 0 0 0 0 0 0 0 0 0 0 0 0 0 0 0 0 0 0 0 0 0 0 0 0 0 0 0
0 0 0 0 0 0 0 0 0 0 0 0 0 0 0 0 0 0 0 0 0 0 0 0 0 0 0 0 0 0 0 0 0 0 0 0 0 0 0 0 0 0 0 0
0 0 0 0 0 0 0 0 0 0 0 0 0 0 0 0 0 0 0 0 0 0 0 0 0 0 0 0 0 0 0 0 0 0 0 0 0 0 0 0 0 0 0 0
0 0 0 0 0 0 0 0 0 0 0 0 0 0 0 0 0 0 0 0 0 0 0 0 0 0 0 0 0 0 0 0 0 0 0 0 0 0 0 0 0 0 0 0
0 0 0 0 0 0 0 0 0 0 0 0 0 0 0 0 0 0 0 0 0 0 0 0 0 0 0 0 0 0 0 0 0 0 0 0 0 0 0 0 0 0 0 0
0 0 0 0 0 0 0 0 0 0 0 0 0 0 0 0 0 0 0 0 0 0 0 0 0 0 0 0 0 0 0 0 0 0 0 0 0 0 0 0 0 0 0 0
0 0 0 0 0 0 0 0 0 0 0 0 0 0 0 0 0 0 0 0 0 0 0 0 0 0 0 0 0 0 0 0 0 0 0 0 0 0 0 0 0 0 0 0
0 0 0 0 0 0 0 0 0 0 0 0 0 0 0 0 0 0 0 0 0 0 0 0 0 0 0 0 0 0 0 0 0 0 0 0 0 0 0 0 0 0 0 0
0 0 0 0 0 0 0 0 0 0 0 0 0 0 0 0 0 0 0 0 0 0 0 0 0 0 0 0 0 0 0 0 0 0 0 0 0 0 0 0 0 0 0 0
0 0 0 0 0 0 0 0 0 0 0 0 0 0 0 0 0 0 0 0 0 0 0 0 0 0 0 0 0 0 0 0 0 0 0 0 0 0 0 0 0 0 0 0
Wind_Speed
8 8 6 7 7 5 6 8 8 8 9 10 9 9 8 7 7 6 4 4 4 3 3 2 2 2 2 2 1 1 1 1 1 1 1 1 1 2 3 3 3 3 3 4
5 4 5 6 7 7 7 8 10 10 10 9 8 6 6 6 6 6 6 5 4 4 3 3 3 2 2 2 1 1 1 1 0 0 0 1 1 1 2 2 3 3 3 3
4 3 4 5 6 6 5 5 6 8 8 8 7 7 7 7 6 6 6 6 5 4 3 3 3 3 2 2 2 1 1 0 0 0 0 1 1 2 2 2 3 3 3 3
3 3 5 0 1 2 4 4 5 7 8 7 8 8 6 5 6 6 6 6 5 4 4 3 3 3 3 2 1 1 0 0 0 0 1 1 1 2 2 2 2 2 2 3
2 4 6 3 1 2 4 5 3 6 8 8 7 6 3 4 5 6 6 5 4 4 4 3 3 3 2 2 1 1 1 1 1 1 1 1 1 2 1 2 2 2 2 3
3 4 5 2 2 2 3 5 1 4 6 7 6 4 3 7 7 6 5 4 4 4 3 3 3 3 2 2 1 1 2 2 2 1 1 1 1 1 1 1 2 2 2 2
5 5 5 3 3 2 4 3 4 5 6 5 4 6 6 7 6 5 4 4 3 3 3 3 3 2 2 2 2 3 2 2 2 1 1 1 1 1 1 1 2 2 2 2
4 6 5 1 2 3 4 5 5 6 6 6 6 6 6 6 5 5 4 4 3 3 3 3 3 2 2 3 3 3 2 2 2 2 1 0 0 0 1 1 2 2 2 1
6 5 2 2 3 3 4 5 6 6 6 5 6 6 6 5 5 4 4 4 3 3 3 3 3 3 3 3 3 3 2 2 2 2 1 0 0 1 1 1 1 1 1 1
6 8 6 6 6 6 6 6 6 6 5 5 5 6 6 5 5 4 4 3 3 3 3 3 3 3 3 3 3 2 2 2 2 1 1 1 0 0 1 1 1 1 1 1
8 8 7 6 6 6 6 6 6 5 5 5 5 5 5 4 5 4 4 3 2 2 3 3 3 3 3 3 2 2 2 2 2 1 1 1 1 1 1 1 1 2 2 2
7 5 5 6 5 6 6 6 6 5 5 5 4 5 4 4 4 4 3 3 2 2 2 3 3 3 3 3 2 1 2 2 2 1 1 1 1 1 2 1 1 2 2 2
6 5 6 7 6 5 6 6 5 4 5 5 4 4 4 4 3 3 3 3 3 3 3 3 2 3 3 2 2 2 1 2 1 1 1 1 0 0 1 2 2 1 1 1
6 4 5 5 5 5 5 4 4 4 4 3 3 3 3 3 3 3 3 3 3 2 2 2 2 3 3 2 2 2 1 2 1 1 1 1 1 1 1 1 1 1 2 2
6 6 6 5 5 4 3 3 3 3 3 3 2 2 2 2 3 3 3 2 2 2 2 2 2 3 3 2 2 2 2 1 1 1 1 1 1 1 1 1 1 1 1 1
4 5 5 5 5 4 3 3 4 4 3 3 3 2 2 2 3 3 2 2 2 2 3 2 3 3 3 2 2 2 1 2 2 1 1 1 1 1 1 1 1 1 1 1
3 4 4 5 5 5 5 4 4 4 4 3 3 3 2 2 2 2 2 2 2 2 3 2 3 3 2 2 2 1 1 1 2 1 1 1 1 1 1 1 1 1 1 1
6 6 6 5 5 5 5 4 4 4 4 4 3 2 2 2 2 3 3 2 2 2 2 2 3 3 2 2 2 1 1 1 1 1 1 1 1 1 1 1 1 1 1 1
4 4 4 4 4 4 4 4 3 3 3 3 2 3 2 2 3 3 2 2 2 3 3 2 3 3 2 2 2 1 1 1 1 1 1 1 1 1 1 1 1 1 1 1
3 3 3 3 3 2 3 3 2 2 2 2 2 2 2 2 2 2 2 2 2 2 2 3 3 2 2 2 2 1 1 1 1 1 1 1 1 1 1 1 1 1 1 1
3 3 3 2 2 2 2 2 2 2 2 2 2 3 3 3 2 2 2 2 2 2 3 3 2 2 2 2 2 1 1 1 1 1 1 1 1 1 1 1 1 1 1 1
3 3 3 2 2 2 2 2 2 2 2 2 2 2 2 2 2 2 2 2 2 3 2 2 2 2 2 2 1 1 1 1 1 1 1 1 2 2 1 1 1 1 1 1
2 2 2 2 2 2 2 2 2 2 2 2 2 2 2 2 2 2 2 2 2 3 2 2 2 3 2 1 1 1 1 1 1 1 2 2 2 2 2 2 1 1 1 1
2 2 2 1 1 1 2 2 2 1 2 2 2 2 2 2 2 2 2 2 3 3 2 2 3 3 2 1 1 1 1 2 2 2 2 2 2 2 2 1 1 1 1 2
1 1 1 1 2 2 2 1 1 1 1 1 2 2 2 2 2 2 2 2 2 2 1 2 2 3 2 1 1 1 1 2 2 2 2 2 1 1 2 1 1 1 1 1
1 2 2 2 2 1 1 1 1 1 1 1 2 2 1 1 1 1 1 1 2 2 2 1 2 2 2 1 1 1 1 2 2 2 1 1 2 2 2 2 2 2 1 1
1 1 1 1 1 1 1 1 1 1 1 1 2 2 1 1 1 1 1 1 1 1 1 1 1 1 1 1 1 1 1 1 1 1 1 1 1 1 1 2 1 1 1 1
Wind_Direction
277 285 284 281 274 257 237 246 253 270 280 298 318 323 325 332 338 344 351 355 355 350 344 339 340 338 331 334 341 308 253 236 241 227 235 200 173 173 174 179 180 180 186 193
277 275 279 278 277 262 253 254 258 271 279 303 316 319 325 333 336 335 338 338 341 340 341 334 331 324 325 329 324 298 285 298 325 198 215 200 173 164 162 171 176 178 187 192
277 312 286 270 268 244 234 246 260 267 287 315 312 311 315 324 328 327 327 330 331 329 325 318 319 321 318 313 311 287 280 312 72 329 235 224 185 166 170 170 170 178 183 189
285 290 246 309 44 259 238 260 266 278 297 307 309 311 311 320 323 323 327 323 323 327 326 327 329 333 330 320 313 306 308 343 22 288 259 237 200 193 181 172 174 175 185 196
253 265 270 278 279 267 253 268 276 283 296 306 315 299 294 351 334 322 321 316 317 323 326 332 339 335 325 320 333 335 323 314 307 285 256 243 219 220 203 184 180 178 182 193
237 257 261 327 357 314 241 259 326 295 301 312 316 293 328 354 338 331 332 328 327 333 338 344 344 336 333 337 343 330 317 303 299 287 256 242 234 228 230 200 187 177 180 195
239 251 269 326 329 211 228 314 343 302 300 301 287 294 317 322 324 327 333 337 337 338 345 345 343 338 344 353 347 335 328 317 313 304 284 260 250 231 205 178 170 178 182 192
218 230 254 65 145 215 288 329 311 302 301 295 296 302 306 314 322 328 334 338 341 343 345 346 345 341 342 346 340 335 335 335 335 332 329 305 286 257 176 161 168 177 182 181
218 240 319 189 233 281 307 299 301 301 298 292 292 296 306 314 320 321 325 329 334 336 335 342 347 343 337 333 337 339 347 350 345 341 344 343 221 209 181 166 176 192 194 197
256 261 271 263 269 282 286 286 294 295 292 288 286 290 297 304 309 313 316 317 323 325 328 336 343 342 337 333 335 341 344 347 346 344 349 358 324 242 217 209 202 210 218 214
255 276 288 264 265 279 285 291 294 297 291 285 282 284 289 296 303 305 305 307 310 311 318 325 332 338 339 336 341 346 345 345 343 345 343 354 358 342 270 258 263 251 241 228
250 258 259 281 290 278 279 284 289 293 295 292 282 280 286 291 297 297 298 304 305 307 311 316 324 330 334 333 332 336 339 339 337 339 340 341 359 17 21 338 324 302 290 267
262 283 274 281 282 274 275 282 286 284 285 291 292 286 284 290 295 293 294 298 297 301 306 310 317 323 327 328 330 330 322 319 322 325 317 304 309 318 11 27 33 16 352 325
253 267 269 270 278 285 282 285 292 292 290 287 286 290 287 291 297 300 303 303 304 303 306 310 314 317 322 326 330 329 324 323 321 319 308 288 270 275 275 277 332 348 346 351
244 249 261 277 281 284 286 283 288 290 298 301 295 289 290 294 299 304 311 314 316 314 315 321 323 324 331 335 333 326 321 322 331 329 312 299 285 276 272 269 283 309 328 345
265 261 259 262 269 278 280 275 273 279 287 291 294 293 294 294 300 306 312 315 309 316 320 323 322 326 333 336 332 329 334 341 337 326 310 304 296 281 277 279 286 291 304 322
234 251 253 259 265 269 268 266 265 269 275 278 282 286 288 292 301 308 318 320 312 310 314 313 314 324 328 325 323 323 326 341 344 332 318 300 284 278 281 279 281 290 303 311
241 251 250 252 255 262 269 271 268 269 269 273 277 271 264 265 276 292 305 312 315 319 319 318 315 322 324 323 318 309 309 323 333 330 324 318 303 287 280 274 272 287 309 327
249 253 253 253 255 253 257 263 266 269 273 267 261 260 264 265 269 280 293 300 299 302 318 326 325 327 324 323 320 299 298 307 316 319 314 313 310 305 300 293 294 304 316 325
256 255 257 263 263 254 255 263 267 269 271 261 257 262 269 276 276 277 281 281 286 294 304 311 320 325 323 320 317 300 285 281 284 293 299 300 298 295 297 298 297 299 307 315
253 257 258 259 264 268 261 256 253 263 273 258 247 253 265 279 279 266 263 279 302 299 294 303 311 309 312 322 317 295 280 278 281 281 281 282 285 288 292 292 288 291 300 309
249 251 257 259 260 277 287 276 261 261 265 262 262 263 267 276 276 270 264 268 292 304 307 301 300 304 321 324 308 290 278 274 277 278 274 272 274 278 277 277 273 279 292 293
247 249 254 256 256 273 293 285 270 258 254 257 259 260 262 268 269 262 277 280 282 295 303 289 295 307 329 319 295 281 275 271 268 265 266 268 269 270 268 267 266 266 271 279
247 252 262 270 249 240 265 283 285 276 269 273 272 267 264 267 268 264 274 288 290 294 295 292 305 319 331 319 299 284 281 278 274 269 267 267 265 263 264 264 260 261 261 266
239 243 244 233 230 245 261 281 290 287 288 290 294 288 274 267 266 283 286 284 286 298 301 308 326 335 335 322 306 287 279 279 280 278 272 266 261 260 261 261 258 258 256 252
221 233 239 246 251 255 256 255 263 276 283 294 305 301 297 293 280 283 290 297 299 309 315 317 320 324 326 322 315 308 296 292 293 287 281 275 266 262 261 259 262 261 257 251
220 229 237 256 272 259 251 247 252 266 273 277 293 303 307 304 295 305 313 307 310 313 312 314 317 319 318 319 318 315 310 302 294 286 280 274 268 263 261 261 263 262 252 240